DLH5RX EDDF-EPWA

Flight info

Callsign DLH5RX
Flight time 1h 15m
Altitude 37000
Route SULUS7S/18 SULUS L984 OKG DCT BALTU DCT LEGAZ DCT LAGAR DCT OKENO Q277 AGAVA
Aircraft A320/M-SDE3FGHIRWY/LB1

Departure

Time 2026-05-05 11:01
Airport Frankfurt Main Airport (EDDF)

Arrival

Time 2026-05-05 12:17
Airport Warsaw Chopin Airport (EPWA)
Time Latitude Longitude Altitude Speed Heading
2026-05-05 10:30 50.04713 8.57624 360 ft 0 kts 24°
2026-05-05 10:46 50.04707 8.57620 356 ft 4 kts 24°
2026-05-05 10:47 50.04682 8.57601 361 ft 4 kts 24°
2026-05-05 10:47 50.04674 8.57597 359 ft 4 kts 36°
2026-05-05 10:47 50.04665 8.57615 364 ft 4 kts 127°
2026-05-05 10:47 50.04646 8.57643 363 ft 4 kts 129°
2026-05-05 10:48 50.04654 8.57676 365 ft 0 kts 250°
2026-05-05 10:52 50.04653 8.57671 362 ft 2 kts 250°
2026-05-05 10:52 50.04625 8.57560 358 ft 18 kts 249°
2026-05-05 10:52 50.04573 8.57336 358 ft 24 kts 251°
2026-05-05 10:52 50.04515 8.57088 359 ft 24 kts 249°
2026-05-05 10:53 50.04454 8.56837 361 ft 25 kts 249°
2026-05-05 10:53 50.04390 8.56569 360 ft 28 kts 250°
2026-05-05 10:53 50.04322 8.56283 358 ft 27 kts 249°
2026-05-05 10:53 50.04276 8.56086 360 ft 15 kts 250°
2026-05-05 10:54 50.04236 8.55923 357 ft 18 kts 249°
2026-05-05 10:54 50.04185 8.55715 358 ft 23 kts 249°
2026-05-05 10:54 50.04122 8.55452 359 ft 28 kts 250°
2026-05-05 10:54 50.04048 8.55151 360 ft 31 kts 249°
2026-05-05 10:55 50.03967 8.54811 356 ft 35 kts 250°
2026-05-05 10:55 50.03885 8.54452 353 ft 35 kts 250°
2026-05-05 10:55 50.03777 8.54127 350 ft 30 kts 250°
2026-05-05 10:55 50.03713 8.53859 350 ft 28 kts 250°
2026-05-05 10:56 50.03642 8.53569 337 ft 30 kts 248°
2026-05-05 10:56 50.03580 8.53321 335 ft 23 kts 249°
2026-05-05 10:56 50.03537 8.53135 338 ft 13 kts 248°
2026-05-05 10:56 50.03505 8.53005 335 ft 13 kts 249°
2026-05-05 10:57 50.03472 8.52877 335 ft 12 kts 248°
2026-05-05 10:57 50.03440 8.52760 334 ft 11 kts 248°
2026-05-05 10:57 50.03433 8.52731 331 ft 0 kts 250°
2026-05-05 10:59 50.03426 8.52702 333 ft 10 kts 250°
2026-05-05 10:59 50.03345 8.52595 335 ft 12 kts 184°
2026-05-05 11:00 50.03338 8.52595 336 ft 0 kts 181°
2026-05-05 11:00 50.03333 8.52595 336 ft 5 kts 181°
2026-05-05 11:00 50.03067 8.52597 336 ft 78 kts 179°
2026-05-05 11:00 50.02280 8.52606 335 ft 141 kts 179°
2026-05-05 11:01 50.01152 8.52616 443 ft 180 kts 180°
2026-05-05 11:01 49.99831 8.52629 897 ft 201 kts 179°
2026-05-05 11:01 49.98380 8.52644 1488 ft 215 kts 179°
2026-05-05 11:01 49.96895 8.53184 2228 ft 226 kts 149°
2026-05-05 11:02 49.95812 8.54948 3143 ft 231 kts 118°
2026-05-05 11:02 49.95093 8.57183 4002 ft 232 kts 120°
2026-05-05 11:02 49.94349 8.59424 4833 ft 237 kts 111°
2026-05-05 11:02 49.94008 8.62014 5373 ft 258 kts 97°
2026-05-05 11:03 49.93862 8.64889 5980 ft 273 kts 95°
2026-05-05 11:03 49.93521 8.67799 6859 ft 276 kts 111°
2026-05-05 11:03 49.92600 8.70412 7764 ft 277 kts 130°
2026-05-05 11:03 49.91196 8.72394 8660 ft 278 kts 146°
2026-05-05 11:04 49.89611 8.74144 9608 ft 281 kts 143°
2026-05-05 11:04 49.88211 8.76301 10376 ft 291 kts 129°
2026-05-05 11:04 49.87099 8.79076 10678 ft 316 kts 120°
2026-05-05 11:04 49.85995 8.82160 10999 ft 337 kts 120°
2026-05-05 11:05 49.84841 8.85381 11652 ft 345 kts 120°
2026-05-05 11:05 49.83667 8.88648 12405 ft 350 kts 121°
2026-05-05 11:05 49.82471 8.91963 13157 ft 354 kts 121°
2026-05-05 11:05 49.81256 8.95317 13868 ft 359 kts 121°
2026-05-05 11:06 49.80026 8.98703 14543 ft 363 kts 121°
2026-05-05 11:06 49.78781 9.02120 15254 ft 366 kts 121°
2026-05-05 11:06 49.77538 9.05525 15938 ft 369 kts 122°
2026-05-05 11:06 49.76365 9.09086 16593 ft 375 kts 115°
2026-05-05 11:07 49.75592 9.12977 17239 ft 382 kts 107°
2026-05-05 11:07 49.74961 9.16983 17903 ft 385 kts 107°
2026-05-05 11:07 49.74320 9.21022 18504 ft 388 kts 107°
2026-05-05 11:07 49.73668 9.25092 19052 ft 391 kts 107°
2026-05-05 11:08 49.73001 9.29196 19597 ft 395 kts 107°
2026-05-05 11:08 49.72320 9.33329 20116 ft 398 kts 107°
2026-05-05 11:08 49.71641 9.37440 20647 ft 402 kts 107°
2026-05-05 11:08 49.70950 9.41641 21169 ft 405 kts 107°
2026-05-05 11:09 49.70255 9.45894 21687 ft 409 kts 107°
2026-05-05 11:09 49.69558 9.50172 22183 ft 412 kts 107°
2026-05-05 11:09 49.68850 9.54489 22659 ft 416 kts 107°
2026-05-05 11:09 49.68132 9.58839 23143 ft 419 kts 107°
2026-05-05 11:10 49.67546 9.63271 23592 ft 425 kts 99°
2026-05-05 11:10 49.67439 9.67866 24005 ft 432 kts 89°
2026-05-05 11:10 49.67854 9.72485 24411 ft 438 kts 79°
2026-05-05 11:10 49.68640 9.76975 24795 ft 441 kts 77°
2026-05-05 11:11 49.69458 9.81567 25196 ft 444 kts 77°
2026-05-05 11:11 49.70273 9.86188 25585 ft 447 kts 77°
2026-05-05 11:11 49.71120 9.90823 25949 ft 451 kts 74°
2026-05-05 11:11 49.72326 9.95320 26313 ft 456 kts 65°
2026-05-05 11:12 49.73985 9.99529 26653 ft 461 kts 56°
2026-05-05 11:12 49.75865 10.03570 27022 ft 464 kts 56°
2026-05-05 11:12 49.77758 10.07652 27364 ft 468 kts 56°
2026-05-05 11:12 49.79638 10.11722 27706 ft 471 kts 56°
2026-05-05 11:13 49.81550 10.15868 28047 ft 474 kts 56°
2026-05-05 11:13 49.83469 10.20039 28385 ft 477 kts 56°
2026-05-05 11:13 49.85402 10.24250 28707 ft 480 kts 56°
2026-05-05 11:13 49.87338 10.28472 29040 ft 482 kts 56°
2026-05-05 11:14 49.89287 10.32728 29349 ft 485 kts 56°
2026-05-05 11:14 49.91240 10.37003 29669 ft 487 kts 56°
2026-05-05 11:14 49.93209 10.41314 29966 ft 490 kts 56°
2026-05-05 11:14 49.95183 10.45637 30234 ft 492 kts 56°
2026-05-05 11:15 49.97138 10.49923 30565 ft 492 kts 56°
2026-05-05 11:15 49.99113 10.54267 30940 ft 491 kts 56°
2026-05-05 11:15 50.01072 10.58599 31358 ft 489 kts 56°
2026-05-05 11:15 50.03027 10.62926 31734 ft 489 kts 56°
2026-05-05 11:16 50.04833 10.67404 32086 ft 487 kts 64°
2026-05-05 11:16 50.06195 10.72218 32434 ft 485 kts 73°
2026-05-05 11:16 50.07086 10.77268 32773 ft 482 kts 82°
2026-05-05 11:16 50.07498 10.82367 33108 ft 479 kts 90°
2026-05-05 11:17 50.07538 10.87535 33437 ft 478 kts 93°
2026-05-05 11:17 50.07536 10.92704 33768 ft 477 kts 94°
2026-05-05 11:17 50.07529 10.97878 34083 ft 477 kts 94°
2026-05-05 11:17 50.07519 11.03049 34400 ft 477 kts 93°
2026-05-05 11:18 50.07509 11.08201 34727 ft 476 kts 93°
2026-05-05 11:18 50.07499 11.13347 35033 ft 475 kts 93°
2026-05-05 11:18 50.07487 11.18487 35339 ft 475 kts 94°
2026-05-05 11:18 50.07474 11.23624 35624 ft 474 kts 94°
2026-05-05 11:19 50.07458 11.28756 35912 ft 473 kts 94°
2026-05-05 11:19 50.07440 11.33803 36188 ft 473 kts 94°
2026-05-05 11:19 50.07420 11.38924 36469 ft 472 kts 94°
2026-05-05 11:19 50.07398 11.44036 36723 ft 472 kts 94°
2026-05-05 11:20 50.07372 11.49154 36820 ft 472 kts 94°
2026-05-05 11:20 50.07306 11.59385 36849 ft 473 kts 94°
2026-05-05 11:21 50.07236 11.69586 36852 ft 474 kts 94°
2026-05-05 11:21 50.07176 11.79868 36851 ft 475 kts 94°
2026-05-05 11:22 50.07100 11.90145 36852 ft 474 kts 94°
2026-05-05 11:22 50.07006 12.00415 36834 ft 474 kts 94°
2026-05-05 11:23 50.06907 12.10622 36843 ft 475 kts 94°
2026-05-05 11:23 50.06794 12.20895 36840 ft 474 kts 94°
2026-05-05 11:24 50.06654 12.31172 36846 ft 474 kts 94°
2026-05-05 11:24 50.06507 12.41378 36843 ft 474 kts 93°
2026-05-05 11:25 50.06668 12.51671 36828 ft 476 kts 89°
2026-05-05 11:25 50.07089 12.61951 36830 ft 476 kts 89°
2026-05-05 11:26 50.07470 12.72249 36833 ft 476 kts 90°
2026-05-05 11:26 50.07750 12.82562 36837 ft 476 kts 90°
2026-05-05 11:27 50.07997 12.92795 36822 ft 476 kts 90°
2026-05-05 11:27 50.08245 13.03098 36825 ft 476 kts 90°
2026-05-05 11:28 50.08496 13.13408 36821 ft 476 kts 90°
2026-05-05 11:28 50.08750 13.23725 36822 ft 477 kts 89°
2026-05-05 11:29 50.10012 13.33867 36820 ft 480 kts 70°
2026-05-05 11:29 50.13073 13.43024 36826 ft 480 kts 58°
2026-05-05 11:30 50.16595 13.51889 36816 ft 481 kts 58°
2026-05-05 11:30 50.20106 13.60807 36821 ft 482 kts 58°
2026-05-05 11:31 50.23582 13.69684 36825 ft 482 kts 58°
2026-05-05 11:31 50.27091 13.78625 36830 ft 482 kts 58°
2026-05-05 11:32 50.30601 13.87577 36831 ft 482 kts 58°
2026-05-05 11:32 50.34093 13.96554 36822 ft 482 kts 58°
2026-05-05 11:33 50.37543 14.05483 36840 ft 482 kts 58°
2026-05-05 11:33 50.41011 14.14461 36848 ft 481 kts 58°
2026-05-05 11:34 50.44476 14.23445 36845 ft 481 kts 58°
2026-05-05 11:34 50.47927 14.32437 36851 ft 481 kts 58°
2026-05-05 11:35 50.51371 14.41446 36838 ft 481 kts 58°
2026-05-05 11:35 50.54794 14.50424 36844 ft 481 kts 58°
2026-05-05 11:36 50.58228 14.59463 36833 ft 481 kts 59°
2026-05-05 11:36 50.61650 14.68524 36845 ft 481 kts 59°
2026-05-05 11:37 50.65060 14.77584 36863 ft 481 kts 59°
2026-05-05 11:37 50.67739 14.87246 36855 ft 481 kts 69°
2026-05-05 11:38 50.70112 14.97121 36843 ft 481 kts 69°
2026-05-05 11:38 50.72467 15.06939 36841 ft 481 kts 69°
2026-05-05 11:39 50.74823 15.16824 36832 ft 481 kts 69°
2026-05-05 11:39 50.77180 15.26734 36847 ft 480 kts 69°
2026-05-05 11:40 50.79498 15.36551 36867 ft 480 kts 70°
2026-05-05 11:40 50.81932 15.46381 36859 ft 480 kts 68°
2026-05-05 11:41 50.84489 15.56135 36848 ft 479 kts 67°
2026-05-05 11:41 50.87030 15.65895 36844 ft 479 kts 68°
2026-05-05 11:42 50.89525 15.75694 36842 ft 479 kts 68°
2026-05-05 11:42 50.91977 15.85440 36846 ft 478 kts 68°
2026-05-05 11:43 50.94441 15.95250 36846 ft 478 kts 68°
2026-05-05 11:43 50.96898 16.05043 36852 ft 478 kts 68°
2026-05-05 11:44 50.99333 16.14785 36846 ft 477 kts 68°
2026-05-05 11:44 51.01775 16.24593 36840 ft 477 kts 68°
2026-05-05 11:45 51.03798 16.32758 36825 ft 477 kts 68°
2026-05-05 11:45 51.06226 16.42569 36834 ft 476 kts 68°
2026-05-05 11:46 51.08635 16.52386 36828 ft 476 kts 69°
2026-05-05 11:46 51.11024 16.62218 36843 ft 476 kts 69°
2026-05-05 11:47 51.13394 16.71992 36836 ft 476 kts 69°
2026-05-05 11:47 51.15786 16.81828 36823 ft 476 kts 69°
2026-05-05 11:48 51.19346 16.96583 36802 ft 475 kts 69°
2026-05-05 11:48 51.21702 17.06430 36809 ft 475 kts 69°
2026-05-05 11:49 51.24036 17.16212 36811 ft 475 kts 69°
2026-05-05 11:49 51.26375 17.26066 36813 ft 475 kts 69°
2026-05-05 11:50 51.28707 17.35945 36813 ft 475 kts 69°
2026-05-05 11:50 51.31032 17.45824 36796 ft 475 kts 69°
2026-05-05 11:51 51.33332 17.55651 36804 ft 475 kts 69°
2026-05-05 11:51 51.35640 17.65559 36809 ft 475 kts 69°
2026-05-05 11:52 51.37938 17.75472 36806 ft 475 kts 69°
2026-05-05 11:52 51.40226 17.85388 36820 ft 475 kts 69°
2026-05-05 11:53 51.42497 17.95262 36811 ft 475 kts 69°
2026-05-05 11:53 51.44773 18.05199 36795 ft 475 kts 70°
2026-05-05 11:54 51.47040 18.15146 36801 ft 475 kts 70°
2026-05-05 11:54 51.49299 18.25119 36804 ft 475 kts 70°
2026-05-05 11:55 51.51549 18.35093 36665 ft 477 kts 70°
2026-05-05 11:55 51.52671 18.40096 36256 ft 476 kts 70°
2026-05-05 11:55 51.53789 18.45092 35862 ft 475 kts 70°
2026-05-05 11:56 51.54904 18.50093 35493 ft 476 kts 70°
2026-05-05 11:56 51.55992 18.55044 35108 ft 476 kts 73°
2026-05-05 11:56 51.56768 18.60211 34738 ft 475 kts 82°
2026-05-05 11:56 51.57069 18.65480 34375 ft 473 kts 90°
2026-05-05 11:57 51.57125 18.70756 34121 ft 473 kts 90°
2026-05-05 11:57 51.57190 18.76049 33880 ft 473 kts 90°
2026-05-05 11:57 51.57261 18.81333 33613 ft 473 kts 90°
2026-05-05 11:57 51.57332 18.86617 32781 ft 475 kts 90°
2026-05-05 11:58 51.57400 18.91946 31794 ft 478 kts 90°
2026-05-05 11:58 51.57465 18.97241 30777 ft 482 kts 90°
2026-05-05 11:58 51.57526 19.02650 29726 ft 486 kts 90°
2026-05-05 11:58 51.57582 19.08058 29090 ft 479 kts 90°
2026-05-05 11:59 51.57635 19.13388 28370 ft 473 kts 90°
2026-05-05 11:59 51.57685 19.18635 27680 ft 467 kts 90°
2026-05-05 11:59 51.57731 19.23852 26992 ft 462 kts 91°
2026-05-05 11:59 51.57771 19.28992 26326 ft 458 kts 91°
2026-05-05 12:00 51.57809 19.34032 25670 ft 454 kts 91°
2026-05-05 12:00 51.57848 19.39096 25019 ft 451 kts 91°
2026-05-05 12:00 51.57885 19.44125 24371 ft 448 kts 91°
2026-05-05 12:00 51.57920 19.49116 23730 ft 445 kts 91°
2026-05-05 12:01 51.57952 19.54082 23052 ft 442 kts 91°
2026-05-05 12:01 51.57982 19.58995 22449 ft 436 kts 91°
2026-05-05 12:01 51.58011 19.63845 21867 ft 431 kts 91°
2026-05-05 12:01 51.58037 19.68565 21337 ft 425 kts 91°
2026-05-05 12:02 51.58060 19.73349 20809 ft 420 kts 91°
2026-05-05 12:02 51.58080 19.77949 20308 ft 415 kts 91°
2026-05-05 12:02 51.58101 19.82570 19804 ft 411 kts 92°
2026-05-05 12:02 51.58119 19.87134 19310 ft 407 kts 92°
2026-05-05 12:03 51.58136 19.91663 18906 ft 400 kts 92°
2026-05-05 12:03 51.58150 19.96105 18579 ft 393 kts 92°
2026-05-05 12:03 51.58100 20.00466 18334 ft 388 kts 95°
2026-05-05 12:03 51.57977 20.04792 18105 ft 386 kts 96°
2026-05-05 12:04 51.57818 20.09091 17931 ft 385 kts 96°
2026-05-05 12:04 51.57650 20.13328 17640 ft 384 kts 96°
2026-05-05 12:04 51.57483 20.17625 17341 ft 382 kts 96°
2026-05-05 12:04 51.57326 20.21884 17060 ft 380 kts 96°
2026-05-05 12:05 51.57176 20.26132 16773 ft 379 kts 96°
2026-05-05 12:05 51.57030 20.30360 16462 ft 378 kts 96°
2026-05-05 12:05 51.56889 20.34519 16161 ft 376 kts 96°
2026-05-05 12:05 51.56750 20.38717 15859 ft 375 kts 96°
2026-05-05 12:06 51.56772 20.42920 15559 ft 377 kts 86°
2026-05-05 12:06 51.57294 20.47048 15255 ft 378 kts 74°
2026-05-05 12:06 51.58252 20.50987 14949 ft 378 kts 68°
2026-05-05 12:06 51.59272 20.54878 14639 ft 377 kts 68°
2026-05-05 12:07 51.60280 20.58759 14331 ft 376 kts 68°
2026-05-05 12:07 51.61282 20.62639 14018 ft 375 kts 68°
2026-05-05 12:07 51.62277 20.66502 13720 ft 374 kts 68°
2026-05-05 12:07 51.63415 20.70274 12986 ft 380 kts 56°
2026-05-05 12:08 51.65121 20.73433 12544 ft 376 kts 46°
2026-05-05 12:08 51.66883 20.76450 12401 ft 363 kts 46°
2026-05-05 12:08 51.68584 20.79407 12052 ft 358 kts 46°
2026-05-05 12:08 51.70270 20.82357 11555 ft 358 kts 47°
2026-05-05 12:09 51.71955 20.85305 11079 ft 357 kts 46°
2026-05-05 12:09 51.73641 20.88250 10622 ft 356 kts 47°
2026-05-05 12:09 51.75320 20.91182 10162 ft 355 kts 46°
2026-05-05 12:09 51.76995 20.94103 9706 ft 354 kts 46°
2026-05-05 12:10 51.78664 20.97013 9214 ft 352 kts 47°
2026-05-05 12:10 51.80304 20.99874 8723 ft 350 kts 47°
2026-05-05 12:10 51.81954 21.02750 8241 ft 348 kts 47°
2026-05-05 12:10 51.83598 21.05620 7625 ft 345 kts 47°
2026-05-05 12:11 51.85205 21.08433 6952 ft 334 kts 48°
2026-05-05 12:11 51.86756 21.11159 6297 ft 324 kts 49°
2026-05-05 12:11 51.88263 21.13807 5625 ft 316 kts 48°
2026-05-05 12:11 51.89934 21.16028 4945 ft 309 kts 27°
2026-05-05 12:12 51.91970 21.16913 4276 ft 301 kts
2026-05-05 12:12 51.93970 21.16336 3617 ft 297 kts 335°
2026-05-05 12:12 51.95823 21.14793 3133 ft 298 kts 329°
2026-05-05 12:12 51.97604 21.13214 3001 ft 284 kts 330°
2026-05-05 12:13 51.99289 21.11745 3003 ft 267 kts 330°
2026-05-05 12:13 52.00880 21.10369 3006 ft 252 kts 329°
2026-05-05 12:13 52.02381 21.09071 3012 ft 238 kts 330°
2026-05-05 12:13 52.03828 21.07816 2854 ft 234 kts 329°
2026-05-05 12:14 52.05242 21.06587 2589 ft 224 kts 330°
2026-05-05 12:14 52.06567 21.05436 2305 ft 208 kts 328°
2026-05-05 12:14 52.07781 21.04382 2045 ft 191 kts 330°
2026-05-05 12:14 52.08908 21.03401 1809 ft 177 kts 329°
2026-05-05 12:15 52.09958 21.02488 1574 ft 165 kts 328°
2026-05-05 12:15 52.10934 21.01636 1402 ft 154 kts 329°
2026-05-05 12:15 52.11858 21.00831 1184 ft 149 kts 328°
2026-05-05 12:15 52.12768 21.00050 973 ft 146 kts 327°
2026-05-05 12:16 52.13644 20.99295 765 ft 139 kts 327°
2026-05-05 12:16 52.14489 20.98557 558 ft 137 kts 326°
2026-05-05 12:16 52.15322 20.97814 405 ft 140 kts 326°
2026-05-05 12:16 52.16165 20.97069 351 ft 131 kts 327°
2026-05-05 12:17 52.16863 20.96448 337 ft 95 kts 331°
2026-05-05 12:17 52.17180 20.96247 336 ft 30 kts 356°
2026-05-05 12:17 52.17360 20.96250 339 ft 20 kts 16°
2026-05-05 12:17 52.17390 20.96393 334 ft 14 kts 133°
2026-05-05 12:18 52.17308 20.96474 337 ft 14 kts 150°
2026-05-05 12:18 52.17226 20.96548 337 ft 13 kts 151°
2026-05-05 12:18 52.17146 20.96623 335 ft 13 kts 138°
2026-05-05 12:18 52.17149 20.96752 338 ft 12 kts 68°
2026-05-05 12:19 52.17181 20.96864 334 ft 7 kts 50°
2026-05-05 12:19 52.17212 20.96901 336 ft 4 kts 52°
2026-05-05 12:19 52.17218 20.96916 337 ft 0 kts 57°
2026-05-05 12:23 52.17410 20.97021 335 ft 0 kts 242°